sat.trackr.live / text

‹ back to catalog

STARLINK-34361

NORAD 64450 · 2025-130N

PAYLOAD ACTIVE UNKNOWN

§ Identity

Operator
Country
US
Launch date
2025-06-18
Launch site
AFETR
Launch vehicle
Mass (kg)
RCS (m²)

Purposes: comms

External: N2YO · Heavens-Above · Gunter

§ Orbital elements

Epoch: 2026-09-20T00:36:26.013312Z

Period
93.85 min
Inclination
53.1559°
Eccentricity
0.0001803
Mean motion
15.34398181 rev/d
Perigee alt
461.5 km
Apogee alt
463.9 km
Semi-major
6,840.8 km
B*
3.6866e-4
RAAN
261.8288°
Arg perigee
61.5639°
Mean anomaly
298.5545°
Rev number
7,168

§ Raw data

STARLINK-343611 64450U 25130N   26263.02530108  .00012099  00000+0  36866-3 0  99902 64450  53.1559 261.8288 0001803  61.5639 298.5545 15.34398181 71689

JSON: /api/v1/satellites/64450 · /tle

For live sub-satellite position, see the globe view (requires WebGL).

§ Visibility from observer

Set your observer location to see the next 7 days of passes ≥ 10°. The values pass through the URL so the page stays shareable.

No JS? Fill the form by hand. The geolocation button needs JavaScript.